2023/07/31 00:00:00, 0.5,22.8
2023/07/31 00:10:00, 0.5,22.0
2023/07/31 00:20:00, 0.5,22.2
2023/07/31 00:30:00, 0.5,22.3
2023/07/31 00:40:00, 0.5,22.3
2023/07/31 00:50:00, 0.5,22.2
2023/07/31 01:00:00, 0.6,21.9
2023/07/31 01:10:00, 0.6,21.8
2023/07/31 01:20:00, 0.6,22.0
2023/07/31 01:30:00, 0.6,21.7
2023/07/31 01:40:00, 0.5,21.4
2023/07/31 01:50:00, 0.4,21.9
2023/07/31 02:00:00, 0.4,21.7
2023/07/31 02:10:00, 3.1,21.5
2023/07/31 02:20:00, 9.1,21.7
2023/07/31 02:30:00, 9.6,21.7
2023/07/31 02:40:00, 9.8,21.5
2023/07/31 02:50:00, 9.9,21.5
2023/07/31 03:00:00, 9.9,21.7
2023/07/31 03:10:00, 9.8,21.7
2023/07/31 03:20:00, 9.1,21.1
2023/07/31 03:30:00, 7.3,21.7
2023/07/31 03:40:00, 4.8,21.9
2023/07/31 03:50:00, 2.1,22.3
2023/07/31 04:00:00, 0.8,22.1
2023/07/31 04:10:00, 4.7,22.0
2023/07/31 04:20:00, 9.0,22.0
2023/07/31 04:30:00, 0.5,21.9
2023/07/31 04:40:00, 0.5,21.9
2023/07/31 04:50:00, 0.5,22.0
2023/07/31 05:00:00, 0.5,21.7
2023/07/31 05:10:00, 0.4,21.6
2023/07/31 05:20:00, 0.4,21.7
2023/07/31 05:30:00, 0.3,22.1
2023/07/31 05:40:00, 2.4,22.5
2023/07/31 05:50:00,19.8,22.2
2023/07/31 06:00:00,20.0,22.5
2023/07/31 06:10:00,18.9,23.0
2023/07/31 06:20:00, 4.2,23.2
2023/07/31 06:30:00, 0.4,23.3
2023/07/31 06:40:00, 0.5,23.7
2023/07/31 06:50:00, 0.9,23.8
2023/07/31 07:00:00, 1.5,24.4
2023/07/31 07:10:00, 3.7,24.5
2023/07/31 07:20:00, 6.2,25.6
2023/07/31 07:30:00, 7.7,25.7
2023/07/31 07:40:00, 7.9,26.2
2023/07/31 07:50:00, 6.7,26.6
2023/07/31 08:00:00, 2.7,27.2
2023/07/31 08:10:00, 1.5,27.9
2023/07/31 08:20:00, 0.7,28.1
2023/07/31 08:30:00, 0.4,28.5
2023/07/31 08:40:00, 0.2,28.7
2023/07/31 08:50:00, 0.2,29.6
2023/07/31 09:00:00, 0.3,30.0
2023/07/31 09:10:00, 0.5,30.1
2023/07/31 09:20:00, 0.5,31.0
2023/07/31 09:30:00, 0.5,31.4
2023/07/31 09:40:00, 0.5,31.8
2023/07/31 09:50:00, 0.4,32.1
2023/07/31 10:00:00, 0.4,31.9
2023/07/31 10:10:00, 0.4,32.5
2023/07/31 10:20:00, 0.5,33.3
2023/07/31 10:30:00, 0.4,33.7
2023/07/31 10:40:00, 0.5,33.8
2023/07/31 10:50:00, 0.4,33.9
2023/07/31 11:00:00, 0.4,33.5
2023/07/31 11:10:00, 0.5,34.4
2023/07/31 11:20:00, 1.5,34.5
2023/07/31 11:30:00, 0.7,35.2
2023/07/31 11:40:00, 0.6,35.6
2023/07/31 11:50:00, 0.6,34.7
2023/07/31 12:00:00, 0.5,35.8
2023/07/31 12:10:00, 0.5,35.5
2023/07/31 12:20:00, 0.5,35.8
2023/07/31 12:30:00, 0.5,35.4
2023/07/31 12:40:00, 0.5,35.7
2023/07/31 12:50:00, 0.5,35.6
2023/07/31 13:00:00, 0.5,35.5
2023/07/31 13:10:00, 0.5,36.4
2023/07/31 13:20:00, 0.5,36.7
2023/07/31 13:30:00, 0.5,36.5
2023/07/31 13:40:00, 0.5,36.3
2023/07/31 13:50:00, 0.5,36.6
2023/07/31 14:00:00, 0.5,37.1
2023/07/31 14:10:00, 0.5,37.3
2023/07/31 14:20:00, 0.5,37.6
2023/07/31 14:30:00, 0.5,35.3
2023/07/31 14:40:00, 0.5,34.4
2023/07/31 14:50:00, 0.5,33.7
2023/07/31 15:00:00, 0.5,32.9
2023/07/31 15:10:00, 0.4,32.4
2023/07/31 15:20:00, 0.4,32.4
2023/07/31 15:30:00, 0.4,31.6
2023/07/31 15:40:00, 0.5,31.2
2023/07/31 15:50:00, 0.4,31.0
2023/07/31 16:00:00, 0.4,31.4
2023/07/31 16:10:00, 0.4,31.1
2023/07/31 16:20:00, 0.4,31.4
2023/07/31 16:30:00, 0.5,31.6
2023/07/31 16:40:00, 0.4,33.0
2023/07/31 16:50:00, 0.5,32.0
2023/07/31 17:00:00, 0.5,31.2
2023/07/31 17:10:00, 0.5,31.4
2023/07/31 17:20:00, 0.5,31.6
2023/07/31 17:30:00, 0.5,31.9
2023/07/31 17:40:00, 0.5,31.4
2023/07/31 17:50:00, 0.5,30.5
2023/07/31 18:00:00, 0.5,30.4
2023/07/31 18:10:00, 0.5,29.7
2023/07/31 18:20:00, 0.5,29.4
2023/07/31 18:30:00, 0.4,28.7
2023/07/31 18:40:00, 0.3,28.6
2023/07/31 18:50:00, 0.4,28.1
2023/07/31 19:00:00, 0.4,27.8
2023/07/31 19:10:00, 0.3,27.6
2023/07/31 19:20:00, 0.3,27.1
2023/07/31 19:30:00, 0.2,27.0
2023/07/31 19:40:00, 0.2,26.8
2023/07/31 19:50:00, 0.2,26.4
2023/07/31 20:00:00, 0.2,26.2
2023/07/31 20:10:00, 0.2,26.1
2023/07/31 20:20:00, 0.2,26.4
2023/07/31 20:30:00, 0.2,25.9
2023/07/31 20:40:00, 0.2,26.2
2023/07/31 20:50:00, 0.2,25.5
2023/07/31 21:00:00, 0.2,25.4
2023/07/31 21:10:00, 0.1,25.4
2023/07/31 21:20:00, 0.2,24.9
2023/07/31 21:30:00, 0.1,25.2
2023/07/31 21:40:00, 0.2,25.2
2023/07/31 21:50:00, 0.2,24.7
2023/07/31 22:00:00, 0.2,25.0
2023/07/31 22:10:00, 0.2,24.9
2023/07/31 22:20:00, 0.2,24.7
2023/07/31 22:30:00, 0.3,24.5
2023/07/31 22:40:00, 0.3,24.1
2023/07/31 22:50:00, 0.4,24.1
2023/07/31 23:00:00, 0.4,23.8
2023/07/31 23:10:00, 0.5,23.7
2023/07/31 23:20:00, 0.5,23.7
2023/07/31 23:30:00, 0.5,23.5
2023/07/31 23:40:00, 0.5,23.6
2023/07/31 23:50:00, 0.5,23.5
